CW8095 Weather Reports


time (UTC)temp
C
wind
direction
speed
KPH
gust
KPH
rain 1hr
cm
rain 24hr
cm
rain mn
cm
humidity
%
barometer
mb
20260905004529 31 143 4.8 17.7 0.00 0.00 0.00 38 1011.5
20260905003524 31 151 6.4 16.1 0.00 0.00 0.00 37 1011.2
20260905002540 32 144 4.8 11.3 0.00 0.00 0.00 37 1011.2
20260905001535 32 137 4.8 11.3 0.00 0.00 0.00 36 1011.2
20260905000526 32 139 4.8 14.5 0.00 0.00 0.00 35 1011.0
20260904235521 32 143 6.4 12.9 0.00 0.00 0.00 35 1011.1
20260904234517 33 140 8.0 22.5 0.00 0.00 0.00 34 1011.0
20260904233527 33 124 6.4 14.5 0.00 0.00 0.00 34 1011.0
20260904232523 33 143 4.8 12.9 0.00 0.00 0.00 33 1011.0
20260904231518 33 138 8.0 17.7 0.00 0.00 0.00 33 1011.0
20260904230549 34 128 8.0 17.7 0.00 0.00 0.00 32 1010.9
20260904225525 35 119 9.7 16.1 0.00 0.00 0.00 31 1011.0
20260904224520 35 144 3.2 16.1 0.00 0.00 0.00 30 1011.0
20260904223515 35 144 4.8 16.1 0.00 0.00 0.00 30 1011.1
20260904222526 34 159 4.8 14.5 0.00 0.00 0.00 31 1011.2
20260904221521 34 161 3.2 9.7 0.00 0.00 0.00 31 1011.1
20260904220517 35 143 4.8 14.5 0.00 0.00 0.00 29 1011.2
20260904215528 36 158 4.8 12.9 0.00 0.00 0.00 28 1011.2
20260904214523 36 133 6.4 14.5 0.00 0.00 0.00 28 1011.4
20260904213519 36 145 4.8 6.4 0.00 0.00 0.00 27 1011.5
20260904212529 36 110 9.7 17.7 0.00 0.00 0.00 27 1011.6
20260904211525 35 156 6.4 17.7 0.00 0.00 0.00 29 1011.7
20260904210520 36 155 4.8 14.5 0.00 0.00 0.00 29 1011.8
20260904205516 36 130 4.8 16.1 0.00 0.00 0.00 29 1012.0
20260904204527 35 141 8.0 17.7 0.00 0.00 0.00 29 1012.1
20260904203522 36 145 8.0 16.1 0.00 0.00 0.00 28 1012.2
20260904202518 36 122 6.4 17.7 0.00 0.00 0.00 27 1012.3
20260904201608 36 157 4.8 11.3 0.00 0.00 0.00 29 1012.3
20260904200544 35 114 4.8 12.9 0.00 0.00 0.00 31 1012.5
20260904195539 34 172 6.4 20.9 0.00 0.00 0.00 32 1012.8
20260904194549 35 155 4.8 14.5 0.00 0.00 0.00 31 1013.0
20260904193525 35 144 3.2 9.7 0.00 0.00 0.00 31 1013.1
20260904192521 35 138 4.8 14.5 0.00 0.00 0.00 32 1013.3
20260904191516 35 173 3.2 9.7 0.00 0.00 0.00 31 1013.2
20260904190527 35 168 8.0 14.5 0.00 0.00 0.00 31 1013.4
20260904185522 35 156 4.8 17.7 0.00 0.00 0.00 32 1013.5
20260904184518 34 123 4.8 12.9 0.00 0.00 0.00 33 1013.7
20260904183528 34 151 6.4 14.5 0.00 0.00 0.00 33 1013.8
20260904182524 34 151 4.8 14.5 0.00 0.00 0.00 35 1014.0
20260904181519 33 164 3.2 9.7 0.00 0.00 0.00 37 1014.1
20260904180530 33 188 4.8 16.1 0.00 0.00 0.00 39 1014.2
20260904175525 33 168 4.8 11.3 0.00 0.00 0.00 38 1014.4
20260904174521 33 161 3.2 11.3 0.00 0.00 0.00 37 1014.4
20260904173516 34 137 8.0 16.1 0.00 0.00 0.00 35 1014.5
20260904172527 33 175 3.2 12.9 0.00 0.00 0.00 38 1014.7
20260904171523 33 165 4.8 12.9 0.00 0.00 0.00 40 1014.8
20260904170518 32 154 1.6 11.3 0.00 0.00 0.00 41 1014.9
20260904165528 33 154 4.8 14.5 0.00 0.00 0.00 40 1015.0
20260904164524 32 148 4.8 17.7 0.00 0.00 0.00 41 1015.0
20260904163519 32 137 4.8 11.3 0.00 0.00 0.00 42 1015.1
20260904162515 31 146 4.8 16.1 0.00 0.00 0.00 44 1014.9
20260904161526 31 143 4.8 12.9 0.00 0.00 0.00 46 1014.9
20260904160541 31 166 6.4 16.1 0.00 0.00 0.00 47 1014.9
20260904155517 30 165 4.8 12.9 0.00 0.00 0.00 49 1015.1
20260904154528 30 177 4.8 11.3 0.00 0.00 0.00 52 1014.9
20260904153524 28 139 8.0 20.9 0.00 0.00 0.00 56 1015.0
20260904152559 28 173 6.4 14.5 0.00 0.00 0.00 57 1015.0
20260904151515 28 137 4.8 16.1 0.00 0.00 0.00 59 1014.9
20260904150526 27 156 6.4 20.9 0.00 0.00 0.00 60 1015.0
20260904145522 27 162 4.8 12.9 0.00 0.00 0.00 62 1015.0
20260904144518 27 144 4.8 9.7 0.00 0.00 0.00 62 1015.0
20260904143528 26 159 4.8 12.9 0.00 0.00 0.00 64 1014.9
20260904142544 26 156 4.8 11.3 0.00 0.00 0.00 66 1014.9
20260904141520 26 149 4.8 14.5 0.00 0.00 0.00 67 1015.0
20260904140515 26 163 4.8 14.5 0.00 0.00 0.00 67 1015.0
20260904135526 25 140 3.2 11.3 0.00 0.00 0.00 70 1014.9
20260904134522 25 161 3.2 11.3 0.00 0.00 0.00 71 1014.9
20260904133518 23 158 3.2 9.7 0.00 0.00 0.00 74 1014.6
20260904132529 23 128 6.4 12.9 0.00 0.00 0.00 75 1014.7
20260904131544 22 124 6.4 12.9 0.00 0.00 0.00 76 1014.5
20260904130540 22 95 3.2 6.4 0.00 0.00 0.00 78 1014.5
20260904125516 22 154 3.2 9.7 0.00 0.00 0.00 78 1014.3
20260904124547 22 130 4.8 9.7 0.00 0.00 0.00 79 1014.2
20260904123522 21 123 4.8 9.7 0.00 0.00 0.00 79 1014.1
20260904122538 21 141 3.2 11.3 0.00 0.00 0.00 80 1014.1
20260904121529 21 139 4.8 11.3 0.00 0.00 0.00 79 1013.9
20260904120525 21 122 4.8 12.9 0.00 0.00 0.00 79 1013.8
20260904115521 21 156 3.2 6.4 0.00 0.00 0.00 79 1013.7
20260904114516 21 131 3.2 4.8 0.00 0.00 0.00 79 1013.7
20260904113546 21 132 4.8 9.7 0.00 0.00 0.00 79 1013.7
20260904112521 21 119 4.8 9.7 0.00 0.00 0.00 78 1013.7
20260904111517 21 126 3.2 11.3 0.00 0.00 0.00 78 1013.5
20260904110528 21 141 3.2 6.4 0.00 0.00 0.00 78 1013.6
20260904105524 21 114 3.2 4.8 0.00 0.00 0.00 78 1013.6
20260904104519 21 143 1.6 3.2 0.00 0.00 0.00 78 1013.5
20260904103535 21 138 1.6 3.2 0.00 0.00 0.00 78 1013.3
20260904102526 21 134 0.0 1.6 0.00 0.00 0.00 78 1013.2
20260904101522 21 134 0.0 3.2 0.00 0.00 0.00 78 1013.2
20260904100518 21 134 0.0 3.2 0.00 0.00 0.00 77 1013.2
20260904095529 22 138 4.8 9.7 0.00 0.00 0.00 77 1013.2
20260904094544 22 114 3.2 6.4 0.00 0.00 0.00 77 1013.2
20260904093520 22 134 3.2 11.3 0.00 0.00 0.00 77 1013.2
20260904092516 22 131 3.2 9.7 0.00 0.00 0.00 77 1013.1
20260904091527 22 145 1.6 9.7 0.00 0.00 0.00 77 1013.2
20260904090522 22 143 3.2 12.9 0.00 0.00 0.00 76 1013.1
20260904085518 22 152 3.2 11.3 0.00 0.00 0.00 76 1013.1
20260904084529 22 161 4.8 11.3 0.00 0.00 0.00 76 1013.2
20260904083525 22 169 8.0 11.3 0.00 0.00 0.00 76 1013.3
20260904082525 22 150 4.8 14.5 0.00 0.00 0.00 76 1013.0
20260904082028 22 150 4.8 16.1 0.00 0.00 0.00 76 1013.0
20260904081043 22 147 3.2 11.3 0.00 0.00 0.00 76 1013.0
20260904080019 22 135 3.2 11.3 0.00 0.00 0.00 76 1013.0
20260904075025 22 151 3.2 9.7 0.00 0.00 0.00 76 1013.0
20260904074046 22 162 4.8 9.7 0.00 0.00 0.00 75 1013.2
20260904073024 22 119 1.6 4.8 0.00 0.00 0.00 75 1013.2
20260904072020 22 130 1.6 6.4 0.00 0.00 0.00 75 1013.3
20260904071018 22 155 3.2 12.9 0.00 0.00 0.00 75 1013.5
20260904070030 22 135 3.2 11.3 0.00 0.00 0.00 75 1013.4
20260904065021 22 139 3.2 6.4 0.00 0.00 0.00 74 1013.5
20260904064043 22 134 3.2 4.8 0.00 0.00 0.00 74 1013.6
20260904063025 22 135 1.6 6.4 0.00 0.00 0.00 74 1013.4
20260904062037 22 142 3.2 9.7 0.00 0.00 0.00 74 1013.5
20260904061043 22 155 3.2 12.9 0.00 0.00 0.00 73 1013.4
20260904060057 22 157 3.2 14.5 0.00 0.00 0.00 73 1013.5
20260904055050 22 149 3.2 9.7 0.00 0.00 0.00 73 1013.5
20260904054023 22 151 4.8 11.3 0.00 0.00 0.00 72 1013.6
20260904053044 22 144 4.8 12.9 0.00 0.00 0.00 72 1013.5
20260904052112 22 147 4.8 14.5 0.00 0.00 0.00 71 1013.3
20260904051023 22 149 3.2 11.3 0.00 0.00 0.00 71 1013.2
20260904050029 22 141 4.8 12.9 0.00 0.00 0.00 70 1013.4
20260904045523 22 145 4.8 12.9 0.00 0.00 0.00 69 1013.6
20260904044550 22 151 4.8 16.1 0.00 0.00 0.00 69 1013.5
20260904043538 22 136 4.8 11.3 0.00 0.00 0.00 68 1013.5
20260904042516 23 127 6.4 11.3 0.00 0.00 0.00 67 1013.5
20260904041529 23 133 4.8 12.9 0.00 0.00 0.00 65 1013.6
20260904040523 23 122 4.8 12.9 0.00 0.00 0.00 63 1013.5
20260904035542 23 127 6.4 16.1 0.00 0.00 0.00 62 1013.6
20260904034537 23 129 6.4 14.5 0.00 0.00 0.00 61 1013.6
20260904033529 23 120 4.8 11.3 0.00 0.00 0.00 61 1013.5
20260904032528 23 129 6.4 14.5 0.00 0.00 0.00 62 1013.4
20260904031524 23 122 4.8 12.9 0.00 0.00 0.00 62 1013.4
20260904030516 23 128 4.8 11.3 0.00 0.00 0.00 62 1013.3
20260904025526 23 132 4.8 14.5 0.00 0.00 0.00 62 1013.2
20260904024521 24 130 3.2 9.7 0.00 0.00 0.00 62 1013.1
20260904023517 24 131 6.4 12.9 0.00 0.00 0.00 62 1012.9
20260904022526 24 119 6.4 11.3 0.00 0.00 0.00 62 1012.8
20260904021522 24 136 4.8 12.9 0.00 0.00 0.00 62 1012.7
20260904020517 25 136 6.4 12.9 0.00 0.00 0.00 62 1012.3
20260904015527 25 129 4.8 14.5 0.00 0.00 0.00 62 1012.2
20260904014523 25 136 6.4 14.5 0.00 0.00 0.00 63 1012.1
20260904013538 25 147 9.7 17.7 0.00 0.00 0.00 63 1012.0
20260904012548 25 144 8.0 14.5 0.00 0.00 0.00 62 1011.9
20260904011524 26 135 9.7 22.5 0.00 0.00 0.00 59 1011.9
20260904010519 26 135 6.4 14.5 0.00 0.00 0.00 55 1011.7
20260904005549 26 143 8.0 22.5 0.00 0.00 0.00 52 1011.8